User: anonymous   Login
Location: Unspecified
(0.0000°N, 0.0000°E)
Time: 06:10:36
(UTC+00:00)
Language:

OPTUS D3 - Orbit

View from above orbital plane
View from above orbital plane
View from above satellite
View from above satellite

Ground track
Ground track

The orbit data is extracted from the following two-line orbital elements,

1 35756U 09044B   17052.61022212 -.00000156  00000-0  00000+0 0  9996
2 35756   0.0458 318.3813 0004213  25.4361 183.5618  1.00272517 27515
Epoch (UTC): 21 February 2017 14:38:43
Eccentricity: 0.0004213
inclination: 0.0458°
perigee height: 35768 km
apogee height: 35804 km
right ascension of ascending node: 318.3813°
argument of perigee: 25.4361°
revolutions per day: 1.00272517
mean anomaly at epoch: 183.5618°
orbit number at epoch: 2751

The dashed part of the orbit path shows where the satellite is in the earth's shadow,  

DLR